Tacoma Narrows, WA
on Tuesday, November 6, 2012

Tuesday
Previous Day Next Day
Daily Summary
 ActualAverageRecord
Temperature
Mean Temperature °F °F  
Max Temperature 55°F 51°F 61°F (2006)
Min Temperature 44°F 41°F 32°F (2003)
Degree Days
Heating Degree Days 16    
Moisture
Dew Point 46°F   
Average Humidity 89    
Maximum Humidity 97    
Minimum Humidity 77    
Precipitation
Precipitation 0.01 in in in ()
Wind
Wind Speed 3 mph   
Max Wind Speed 14 mph   
Max Gust Speed 24 mph   
Visibility 5 miles   
Events Fog , Rain   
Averages and records for this station are not official NWS values.
Key: T is trace of precipitation, MM is missing value
Source: NWS Daily Summary
Seasonal Weather Averages
Time(PST)TemperatureDew PointHumidity Pressure Visibility Wind DirectionWind SpeedGust SpeedPrecipitationEvents Conditions
12:53 AM 46.0°F 43.0°F 89% 30.15 in 6.0 miles North 3.5 mph - N/A   Clear
1:53 AM 46.9°F 44.1°F 90% 30.14 in 6.0 miles Calm Calm - N/A   Clear
2:53 AM 45.0°F 43.0°F 93% 30.12 in 5.0 miles Calm Calm - N/A   Scattered Clouds
3:02 AM 44.6°F 42.8°F 93% 30.11 in 4.0 miles Calm Calm - N/A   Mostly Cloudy
3:53 AM 45.0°F 42.1°F 90% 30.11 in 5.0 miles Calm Calm - N/A   Mostly Cloudy
4:00 AM 44.6°F 42.8°F 93% 30.10 in 6.0 miles Calm Calm - N/A   Scattered Clouds
4:53 AM 46.0°F 43.0°F 89% 30.08 in 5.0 miles Calm Calm - N/A   Partly Cloudy
5:02 AM 46.4°F 44.6°F 93% 30.08 in 4.0 miles Calm Calm - N/A   Scattered Clouds
5:10 AM 46.4°F 44.6°F 93% 30.07 in 3.0 miles Calm Calm - N/A   Mostly Cloudy
5:24 AM 46.4°F 44.6°F 93% 30.07 in 2.5 miles Calm Calm - N/A   Overcast
5:34 AM 46.4°F 44.6°F 93% 30.07 in 3.0 miles Calm Calm - N/A   Overcast
5:53 AM 46.9°F 45.0°F 93% 30.07 in 2.0 miles Calm Calm - N/A   Overcast
6:13 AM 46.4°F 44.6°F 93% 30.06 in 1.8 miles Calm Calm - N/A   Overcast
6:37 AM 46.4°F 44.6°F 93% 30.05 in 0.8 miles Calm Calm - N/A   Overcast
6:53 AM 46.0°F 44.1°F 93% 30.06 in 0.5 miles West 3.5 mph - N/A Fog Fog
7:23 AM 46.4°F 44.6°F 93% 30.05 in 0.2 miles Calm Calm - N/A Fog Fog
7:53 AM 46.9°F 45.0°F 93% 30.06 in 0.5 miles Calm Calm - N/A Fog Fog
8:53 AM 46.9°F 46.0°F 97% 30.05 in 0.5 miles SSE 3.5 mph - N/A Fog Fog
9:53 AM 46.9°F 46.0°F 97% 30.03 in 0.5 miles South 3.5 mph - N/A Fog Fog
10:53 AM 46.9°F 45.0°F 93% 30.02 in 0.5 miles SSW 5.8 mph - N/A Fog Fog
11:00 AM 48.2°F 46.4°F 93% 30.01 in 2.0 miles SSW 5.8 mph - N/A   Overcast
11:53 AM 48.0°F 46.0°F 93% 29.98 in 3.0 miles South 9.2 mph - N/A   Overcast
11:59 AM 48.2°F 46.4°F 93% 29.98 in 3.0 miles SSW 9.2 mph - N/A   Overcast
12:00 PM 48.2°F 46.4°F 93% 29.98 in 3.0 miles SSW 9.2 mph - N/A   Overcast
12:53 PM 50.0°F 48.0°F 93% 29.99 in 3.0 miles Variable 3.5 mph - N/A   Overcast
1:00 PM 51.8°F 48.2°F 88% 29.98 in 6.0 miles Calm Calm - N/A   Overcast
1:53 PM 53.1°F 48.9°F 86% 29.99 in 6.0 miles SSW 8.1 mph - N/A   Overcast
2:53 PM 54.0°F 50.0°F 86% 30.00 in 5.0 miles SSW 6.9 mph - 0.00 in Rain Light Rain
3:53 PM 55.0°F 50.0°F 83% 30.00 in 7.0 miles SSW 9.2 mph - 0.01 in Rain Light Rain
4:53 PM 55.0°F 50.0°F 83% 29.99 in 10.0 miles SSW 10.4 mph - 0.00 in   Overcast
5:53 PM 55.0°F 48.9°F 80% 29.99 in 10.0 miles SSW 10.4 mph 17.3 mph 0.00 in   Overcast
6:00 PM 53.6°F 50.0°F 88% 29.98 in 10.0 miles SSW 10.4 mph - N/A   Overcast
6:53 PM 54.0°F 48.9°F 83% 30.00 in 10.0 miles SW 8.1 mph - N/A   Overcast
7:53 PM 52.0°F 46.9°F 83% 30.01 in 10.0 miles South 11.5 mph 20.7 mph N/A   Mostly Cloudy
8:01 PM 51.8°F 46.4°F 82% 30.01 in 10.0 miles SSW 10.4 mph 18.4 mph N/A   Scattered Clouds
8:53 PM 52.0°F 45.0°F 77% 30.03 in 10.0 miles SSW 13.8 mph 24.2 mph N/A   Clear
9:53 PM 51.1°F 45.0°F 80% 30.05 in 10.0 miles SSW 11.5 mph 19.6 mph N/A   Clear
10:53 PM 50.0°F 45.0°F 83% 30.06 in 10.0 miles South 11.5 mph - N/A   Scattered Clouds
11:53 PM 50.0°F 44.1°F 80% 30.05 in 10.0 miles SSW 11.5 mph - N/A   Clear
Moon Phase
Nov. 06 Nov. 06 Nov. 13 Nov. 20 Nov. 28
Sunrise:07:01 AM (PST) Moon Rise:11:35 PM (PST)11/6
Sunset:04:45 PM (PST) Moon Set:12:53 PM (PST)11/6

Copyright © 2014 The Weather Underground, Inc.